Regional Weather Roundup
Issued by NWS Charleston, WV

Home | Current Version | Previous Version | Text Only | Print | Product List | Glossary Off
Versions: 1 2 3 4 5 6 7 8 9 10 11 12 13 14 15 16 17 18 19 20 21 22 23 24 25 26 27 28

000
ASUS41 KRLX 180110
RWRRLX
West Virginia Regional Weather Roundup
National Weather Service Charleston WV
900 PM EDT THU APR 17 2014

Note: "fair" indicates few or no clouds below 12,000 feet with no
significant weather and/or obstructions to visibility.

WVZ003-180200-
Northern Panhandle of West Virginia

CITY           SKY/WX    TMP DP  RH WIND       PRES   REMARKS
WHEELING       PTCLDY    56  27  32 E10       30.31R
$$

WVZ009-180200-
Northwest West Virginia

CITY           SKY/WX    TMP DP  RH WIND       PRES   REMARKS
PARKERSBURG    CLEAR     60  23  24 CALM      30.32R
$$

WVZ006-180200-
Western West Virginia

CITY           SKY/WX    TMP DP  RH WIND       PRES   REMARKS
HUNTINGTON     CLEAR     62  20  19 CALM      30.30R
$$

WVZ015-180200-
West Central West Virginia

CITY           SKY/WX    TMP DP  RH WIND       PRES   REMARKS
CHARLESTON     PTCLDY    63  24  22 S13       30.32R
$$

WVZ031-180200-
North Central West Virginia

CITY           SKY/WX    TMP DP  RH WIND       PRES   REMARKS
CLARKSBURG     CLEAR     59  25  27 SE12      30.32R
MORGANTOWN     CLEAR     56  24  29 SE13G25   30.34S
$$

WVZ035-042-045-180200-
South Central West Virginia

CITY           SKY/WX    TMP DP  RH WIND       PRES   REMARKS
BECKLEY        CLEAR     50  24  36 SE9       30.40R
BLUEFIELD      CLEAR     52  20  28 SE6       30.40R
LEWISBURG      CLEAR     47  17  29 CALM      30.43R
$$

WVZ047-180200-
Northern Mountains of West Virginia

CITY           SKY/WX    TMP DP  RH WIND       PRES   REMARKS
ELKINS         CLEAR     52  23  32 SE8       30.38R
$$

WVZ052-180200-
Eastern Panhandle of West Virginia

CITY           SKY/WX    TMP DP  RH WIND       PRES   REMARKS
MARTINSBURG    CLEAR     48  28  46 E5        30.51R
PETERSBURG     CLEAR     53  34  48 S5        30.46R
$$



USA.gov is the U.S. government's official web portal to all federal, state and local government web resources and services.